sat.trackr.live / text

‹ back to catalog

INTELSAT 40E (IS-40E)

NORAD 56174 · 2023-052A

PAYLOAD ACTIVE UNKNOWN

§ Identity

Operator
Country
ITSO
Launch date
2023-04-07
Launch site
AFETR
Launch vehicle
Mass (kg)
RCS (m²)

Purposes: comms

External: N2YO · Heavens-Above · Gunter

§ Orbital elements

Epoch: 2026-09-20T01:05:34.592064Z

Period
1,436.09 min
Inclination
0.0093°
Eccentricity
0.0002653
Mean motion
1.00271929 rev/d
Perigee alt
35,775.4 km
Apogee alt
35,797.7 km
Semi-major
42,164.7 km
B*
0.0000e+0
RAAN
151.4093°
Arg perigee
29.2806°
Mean anomaly
103.6608°
Rev number
1,277

§ Raw data

INTELSAT 40E (IS-40E)1 56174U 23052A   26263.04553926 -.00000179  00000+0  00000+0 0  99942 56174   0.0093 151.4093 0002653  29.2806 103.6608  1.00271929 12775

JSON: /api/v1/satellites/56174 · /tle

For live sub-satellite position, see the globe view (requires WebGL).

§ Visibility from observer

Set your observer location to see the next 7 days of passes ≥ 10°. The values pass through the URL so the page stays shareable.

No JS? Fill the form by hand. The geolocation button needs JavaScript.